Tracking 28052 objects as of 21-Sep-2023
HD Live streaming from Space Station
objects crossing your sky now

STARLINK-2499

Track STARLINK-2499 now!
10-day predictions
STARLINK-2499 is classified as:


NORAD ID: 48377
Int'l Code: 2021-038AA
Perigee: 553.5 km
Apogee: 555.3 km
Inclination: 53.1 °
Period: 95.6 minutes
Semi major axis: 6925 km
RCS: Unknown
Launch date: May 4, 2021
Source: United States (US)
Launch site: AIR FORCE EASTERN TEST RANGE (AFETR)
Your satellite tracking list
Your tracking list is empty




NASA's NSSDC Master Catalog

Two Line Element Set (TLE):
1 48377U 21038AA  23263.74851495  .00001708  00000-0  13355-3 0  9998
2 48377  53.0545  76.1016 0001320  78.5461 281.5676 15.06394949131371
Source of the keplerian elements: AFSPC